Location: Asheville, NC
(35.6000°N, 82.5500°W)
Time: 06:04:27
(UTC-05:00)

Envisat - Pass Details

Date: 11 October 2017
Orbit: 764 x 766 km, 98.2° (Epoch: 18 December)

Event Time Altitude Azimuth Distance (km) Brightness Sun altitude
Exits shadow 20:30:45 22° 45° (NE) 1,607 4.3 -19.3°
Drops below altitude 10° 20:33:31 10° 15° (NNE) 2,307 5.4 -19.9°
Sets 20:36:10 0° 2° (N) 3,237 6.3 -20.4°
